• In Hungary
  • List of Countries
  • For 7 days
  • Water Temperature
  • Satellite Maps
  • Weather Map
  • News
  • Weather Widgets
  • user-avatar
    Login

    Hourly Weather Yelsk

    Today, 24 September, Monday

    Time Temperature Precipitation Wind Pressure Humidity
    00:00 +11°C° 0.2 mm 3 mps 744 mmHg 70%
    01:00 +11°C° 0.2 mm 4 mps 743 mmHg 70%
    02:00 +12°C° 0.2 mm 4 mps 742 mmHg 71%
    03:00 +11°C° 1.9 mm 4 mps 741 mmHg 74%
    04:00 +11°C° 1.9 mm 4 mps 739 mmHg 78%
    05:00 +11°C° 1.9 mm 4 mps 738 mmHg 82%
    06:00 +10°C° 1.3 mm 5 mps 737 mmHg 83%
    07:00 +11°C° 1.3 mm 6 mps 736 mmHg 85%
    08:00 +11°C° 1.3 mm 7 mps 735 mmHg 86%
    09:00 +12°C° 0.4 mm 8 mps 735 mmHg 84%
    10:00 +12°C° 0.4 mm 8 mps 735 mmHg 82%
    11:00 +13°C° 0.4 mm 9 mps 735 mmHg 81%
    12:00 +12°C° 0.1 mm 9 mps 737 mmHg 79%
    13:00 +11°C° 0.1 mm 9 mps 738 mmHg 78%
    14:00 +10°C° 0.1 mm 9 mps 739 mmHg 76%
    15:00 +10°C° 0 mm 8 mps 739 mmHg 74%
    16:00 +10°C° 0 mm 7 mps 740 mmHg 72%
    17:00 +10°C° 0 mm 6 mps 741 mmHg 70%
    18:00 +9°C° 0 mm 6 mps 741 mmHg 73%
    19:00 +9°C° 0 mm 5 mps 741 mmHg 76%
    20:00 +8°C° 0 mm 5 mps 742 mmHg 78%
    21:00 +8°C° 0 mm 5 mps 742 mmHg 79%
    22:00 +7°C° 0 mm 5 mps 742 mmHg 80%
    23:00 +7°C° 0 mm 5 mps 742 mmHg 81%

    Tomorrow, 25 September, Tuesday

    Time Temperature Precipitation Wind Pressure Humidity
    00:00 +7°C° 0 mm 5 mps 743 mmHg 83%
    01:00 +7°C° 0 mm 5 mps 743 mmHg 84%
    02:00 +6°C° 0 mm 5 mps 743 mmHg 86%
    03:00 +6°C° 0.6 mm 5 mps 744 mmHg 87%
    04:00 +6°C° 0.6 mm 5 mps 744 mmHg 88%
    05:00 +5°C° 0.6 mm 6 mps 745 mmHg 89%
    06:00 +5°C° 0.8 mm 6 mps 745 mmHg 88%
    07:00 +5°C° 0.8 mm 6 mps 746 mmHg 86%
    08:00 +5°C° 0.8 mm 7 mps 747 mmHg 85%
    09:00 +5°C° 0 mm 7 mps 748 mmHg 81%
    10:00 +5°C° 0 mm 7 mps 748 mmHg 77%
    11:00 +6°C° 0 mm 7 mps 749 mmHg 73%
    12:00 +8°C° 0.1 mm 7 mps 749 mmHg 66%
    13:00 +9°C° 0.1 mm 7 mps 750 mmHg 59%
    14:00 +10°C° 0.1 mm 7 mps 750 mmHg 51%
    15:00 +9°C° 0.1 mm 6 mps 750 mmHg 54%
    16:00 +9°C° 0.1 mm 6 mps 751 mmHg 56%
    17:00 +8°C° 0.1 mm 5 mps 751 mmHg 58%
    18:00 +7°C° 0 mm 5 mps 752 mmHg 62%
    19:00 +6°C° 0 mm 4 mps 753 mmHg 65%
    20:00 +5°C° 0 mm 4 mps 753 mmHg 69%
    21:00 +5°C° 0 mm 4 mps 754 mmHg 70%
    22:00 +5°C° 0 mm 4 mps 755 mmHg 70%
    23:00 +4°C° 0 mm 4 mps 755 mmHg 70%

    Day after tomorrow, 26 September, Wednesday

    Time Temperature Precipitation Wind Pressure Humidity
    00:00 +4°C° 0 mm 4 mps 756 mmHg 70%
    01:00 +3°C° 0 mm 4 mps 756 mmHg 70%
    02:00 +3°C° 0 mm 4 mps 757 mmHg 69%
    03:00 +3°C° 0 mm 3 mps 757 mmHg 70%
    04:00 +2°C° 0 mm 3 mps 757 mmHg 71%
    05:00 +2°C° 0 mm 3 mps 758 mmHg 72%
    06:00 +3°C° 0 mm 3 mps 758 mmHg 70%
    07:00 +3°C° 0 mm 4 mps 759 mmHg 69%
    08:00 +4°C° 0 mm 4 mps 759 mmHg 68%
    09:00 +6°C° 0 mm 4 mps 759 mmHg 62%
    10:00 +7°C° 0 mm 4 mps 759 mmHg 56%
    11:00 +10°C° 0 mm 4 mps 759 mmHg 51%
    12:00 +11°C° 0 mm 4 mps 759 mmHg 48%
    13:00 +11°C° 0 mm 4 mps 759 mmHg 45%
    14:00 +12°C° 0 mm 4 mps 758 mmHg 42%
    15:00 +11°C° 0 mm 3 mps 758 mmHg 45%
    16:00 +11°C° 0 mm 3 mps 758 mmHg 48%
    17:00 +10°C° 0 mm 2 mps 757 mmHg 51%
    18:00 +9°C° 0 mm 3 mps 757 mmHg 54%
    19:00 +9°C° 0 mm 3 mps 757 mmHg 57%
    20:00 +8°C° 0 mm 3 mps 757 mmHg 61%
    21:00 +8°C° 0 mm 3 mps 756 mmHg 60%
    22:00 +7°C° 0 mm 4 mps 756 mmHg 60%
    23:00 +7°C° 0 mm 4 mps 756 mmHg 60%

    27 September, Thursday

    Time Temperature Precipitation Wind Pressure Humidity
    00:00 +7°C° 0 mm 5 mps 755 mmHg 58%
    01:00 +7°C° 0 mm 5 mps 754 mmHg 57%
    02:00 +7°C° 0 mm 6 mps 754 mmHg 56%
    03:00 +7°C° 0 mm 6 mps 753 mmHg 56%
    04:00 +7°C° 0 mm 6 mps 753 mmHg 57%
    05:00 +7°C° 0 mm 6 mps 752 mmHg 57%
    06:00 +8°C° 0 mm 6 mps 752 mmHg 60%
    07:00 +8°C° 0 mm 7 mps 751 mmHg 63%
    08:00 +9°C° 0 mm 7 mps 751 mmHg 65%
    09:00 +10°C° 0 mm 7 mps 751 mmHg 64%
    10:00 +11°C° 0 mm 7 mps 751 mmHg 62%
    11:00 +12°C° 0 mm 7 mps 751 mmHg 60%
    12:00 +12°C° 0 mm 7 mps 750 mmHg 61%
    13:00 +12°C° 0 mm 7 mps 750 mmHg 62%
    14:00 +13°C° 0 mm 6 mps 750 mmHg 63%
    15:00 +14°C° 0 mm 6 mps 750 mmHg 64%
    16:00 +14°C° 0 mm 5 mps 750 mmHg 65%
    17:00 +15°C° 0 mm 4 mps 749 mmHg 66%
    18:00 +14°C° 0 mm 4 mps 750 mmHg 71%
    19:00 +13°C° 0 mm 4 mps 750 mmHg 75%
    20:00 +13°C° 0 mm 4 mps 750 mmHg 79%
    21:00 +13°C° 0 mm 4 mps 749 mmHg 81%
    22:00 +12°C° 0 mm 4 mps 749 mmHg 83%
    23:00 +12°C° 0 mm 4 mps 749 mmHg 85%

    28 September, Friday

    Time Temperature Precipitation Wind Pressure Humidity
    00:00 +12°C° 0 mm 4 mps 749 mmHg 86%
    01:00 +12°C° 0 mm 4 mps 749 mmHg 87%
    02:00 +12°C° 0 mm 5 mps 748 mmHg 89%
    03:00 +12°C° 0 mm 5 mps 748 mmHg 90%
    04:00 +12°C° 0 mm 5 mps 748 mmHg 91%
    05:00 +10°C° 0 mm 5 mps 747 mmHg 92%
    06:00 +12°C° 0 mm 5 mps 747 mmHg 87%
    07:00 +13°C° 0 mm 6 mps 747 mmHg 82%
    08:00 +13°C° 0 mm 6 mps 747 mmHg 78%
    09:00 +14°C° 0 mm 6 mps 747 mmHg 75%
    10:00 +16°C° 0 mm 6 mps 747 mmHg 72%
    11:00 +17°C° 0 mm 6 mps 747 mmHg 69%
    12:00 +16°C° 0.1 mm 6 mps 747 mmHg 71%
    13:00 +16°C° 0.1 mm 5 mps 747 mmHg 73%
    14:00 +16°C° 0.1 mm 5 mps 748 mmHg 75%
    15:00 +15°C° 0.1 mm 4 mps 748 mmHg 77%
    16:00 +16°C° 0.1 mm 3 mps 748 mmHg 78%
    17:00 +15°C° 0.1 mm 2 mps 748 mmHg 80%
    18:00 +14°C° 0 mm 2 mps 748 mmHg 83%
    19:00 +13°C° 0 mm 2 mps 749 mmHg 86%
    20:00 +12°C° 0 mm 1 mps 749 mmHg 88%
    21:00 +12°C° 0 mm 1 mps 749 mmHg 86%
    22:00 +12°C° 0 mm 1 mps 750 mmHg 84%
    23:00 +11°C° 0 mm 1 mps 750 mmHg 83%

    29 September, Saturday

    Time Temperature Precipitation Wind Pressure Humidity
    00:00 +11°C° 0 mm 1 mps 750 mmHg 82%
    01:00 +10°C° 0 mm 1 mps 750 mmHg 82%
    02:00 +10°C° 0 mm 1 mps 750 mmHg 82%
    03:00 +9°C° 0 mm 1 mps 750 mmHg 82%
    04:00 +9°C° 0 mm 1 mps 750 mmHg 82%
    05:00 +9°C° 0 mm 1 mps 750 mmHg 82%
    06:00 +9°C° 0.1 mm 1 mps 750 mmHg 80%
    07:00 +10°C° 0.1 mm 1 mps 750 mmHg 79%
    08:00 +10°C° 0.1 mm 1 mps 751 mmHg 77%
    09:00 +11°C° 0.1 mm 1 mps 751 mmHg 73%
    10:00 +12°C° 0.1 mm 1 mps 751 mmHg 70%
    11:00 +12°C° 0.1 mm 2 mps 752 mmHg 66%
    12:00 +13°C° 0.1 mm 2 mps 752 mmHg 60%
    13:00 +14°C° 0.1 mm 2 mps 752 mmHg 54%
    14:00 +15°C° 0.1 mm 2 mps 752 mmHg 48%
    15:00 +14°C° 0.1 mm 2 mps 752 mmHg 51%
    16:00 +13°C° 0.1 mm 2 mps 753 mmHg 54%
    17:00 +13°C° 0.1 mm 2 mps 753 mmHg 58%
    18:00 +10°C° 0 mm 2 mps 753 mmHg 63%
    19:00 +9°C° 0 mm 2 mps 754 mmHg 69%
    20:00 +7°C° 0 mm 2 mps 755 mmHg 75%
    21:00 +7°C° 0 mm 2 mps 755 mmHg 76%
    22:00 +6°C° 0 mm 2 mps 755 mmHg 78%
    23:00 +6°C° 0 mm 2 mps 756 mmHg 80%
    Show more

    3.3.7123123